owner,sensor,date,latitude,longitude,sea_water_turbidity,qcFlag 
NERRS,ioos:station:NOAA.NERRS:marmbwq:1,2015-07-01T00:30:00Z,28.1384,-96.8285,254.0,1111122 
NERRS,ioos:station:NOAA.NERRS:marmbwq:1,2015-07-01T01:30:00Z,28.1384,-96.8285,30.0,1111122 
NERRS,ioos:station:NOAA.NERRS:marmbwq:1,2015-07-01T02:30:00Z,28.1384,-96.8285,15.0,1111122 
NERRS,ioos:station:NOAA.NERRS:marmbwq:1,2015-07-01T04:30:00Z,28.1384,-96.8285,11.0,1111122 
NERRS,ioos:station:NOAA.NERRS:marmbwq:1,2015-07-01T05:30:00Z,28.1384,-96.8285,25.0,1111122 
NERRS,ioos:station:NOAA.NERRS:marmbwq:1,2015-07-01T06:30:00Z,28.1384,-96.8285,36.0,1111122 
NERRS,ioos:station:NOAA.NERRS:marmbwq:1,2015-07-01T08:00:00Z,28.1384,-96.8285,50.0,1111122 
NERRS,ioos:station:NOAA.NERRS:marmbwq:1,2015-07-01T08:30:00Z,28.1384,-96.8285,54.0,1111122 
NERRS,ioos:station:NOAA.NERRS:marmbwq:1,2015-07-01T09:30:00Z,28.1384,-96.8285,50.0,1111122 
NERRS,ioos:station:NOAA.NERRS:marmbwq:1,2015-07-01T10:30:00Z,28.1384,-96.8285,36.0,1111122 
NERRS,ioos:station:NOAA.NERRS:marmbwq:1,2015-07-01T11:30:00Z,28.1384,-96.8285,37.0,1111122 
NERRS,ioos:station:NOAA.NERRS:marmbwq:1,2015-07-01T12:30:00Z,28.1384,-96.8285,44.0,1111122 
NERRS,ioos:station:NOAA.NERRS:marmbwq:1,2015-07-01T13:30:00Z,28.1384,-96.8285,47.0,1111122 
NERRS,ioos:station:NOAA.NERRS:marmbwq:1,2015-07-01T14:30:00Z,28.1384,-96.8285,56.0,1111122 
NERRS,ioos:station:NOAA.NERRS:marmbwq:1,2015-07-01T15:30:00Z,28.1384,-96.8285,47.0,1111122 
NERRS,ioos:station:NOAA.NERRS:marmbwq:1,2015-07-01T16:30:00Z,28.1384,-96.8285,50.0,1111122 
NERRS,ioos:station:NOAA.NERRS:marmbwq:1,2015-07-01T17:30:00Z,28.1384,-96.8285,179.0,1111122 
NERRS,ioos:station:NOAA.NERRS:marmbwq:1,2015-07-01T18:30:00Z,28.1384,-96.8285,235.0,1111122 
NERRS,ioos:station:NOAA.NERRS:marmbwq:1,2015-07-01T19:30:00Z,28.1384,-96.8285,221.0,1111122 
NERRS,ioos:station:NOAA.NERRS:marmbwq:1,2015-07-01T20:30:00Z,28.1384,-96.8285,130.0,1111122 
NERRS,ioos:station:NOAA.NERRS:marmbwq:1,2015-07-01T22:30:00Z,28.1384,-96.8285,62.0,1111122 
NERRS,ioos:station:NOAA.NERRS:marmbwq:1,2015-07-01T23:30:00Z,28.1384,-96.8285,79.0,1111122 
NERRS,ioos:station:NOAA.NERRS:marmbwq:1,2015-07-02T00:30:00Z,28.1384,-96.8285,42.0,1111122 
NERRS,ioos:station:NOAA.NERRS:marmbwq:1,2015-07-02T01:30:00Z,28.1384,-96.8285,32.0,1111122 
NERRS,ioos:station:NOAA.NERRS:marmbwq:1,2015-07-02T02:30:00Z,28.1384,-96.8285,13.0,1111122 
NERRS,ioos:station:NOAA.NERRS:marmbwq:1,2015-07-02T03:30:00Z,28.1384,-96.8285,18.0,1111122 
NERRS,ioos:station:NOAA.NERRS:marmbwq:1,2015-07-02T04:30:00Z,28.1384,-96.8285,27.0,1111122 
NERRS,ioos:station:NOAA.NERRS:marmbwq:1,2015-07-02T05:30:00Z,28.1384,-96.8285,20.0,1111122 
NERRS,ioos:station:NOAA.NERRS:marmbwq:1,2015-07-02T06:30:00Z,28.1384,-96.8285,12.0,1111122 
NERRS,ioos:station:NOAA.NERRS:marmbwq:1,2015-07-02T07:30:00Z,28.1384,-96.8285,12.0,1111122 
NERRS,ioos:station:NOAA.NERRS:marmbwq:1,2015-07-02T08:30:00Z,28.1384,-96.8285,18.0,1111122 
NERRS,ioos:station:NOAA.NERRS:marmbwq:1,2015-07-02T09:30:00Z,28.1384,-96.8285,13.0,1111122 
NERRS,ioos:station:NOAA.NERRS:marmbwq:1,2015-07-02T10:30:00Z,28.1384,-96.8285,12.0,1111122 
NERRS,ioos:station:NOAA.NERRS:marmbwq:1,2015-07-02T11:30:00Z,28.1384,-96.8285,20.0,1111122 
NERRS,ioos:station:NOAA.NERRS:marmbwq:1,2015-07-02T12:30:00Z,28.1384,-96.8285,36.0,1111122 
NERRS,ioos:station:NOAA.NERRS:marmbwq:1,2015-07-02T13:30:00Z,28.1384,-96.8285,36.0,1111122 
NERRS,ioos:station:NOAA.NERRS:marmbwq:1,2015-07-02T14:30:00Z,28.1384,-96.8285,46.0,1111122 
NERRS,ioos:station:NOAA.NERRS:marmbwq:1,2015-07-02T16:30:00Z,28.1384,-96.8285,55.0,1111122 
NERRS,ioos:station:NOAA.NERRS:marmbwq:1,2015-07-02T17:30:00Z,28.1384,-96.8285,48.0,1111122 
NERRS,ioos:station:NOAA.NERRS:marmbwq:1,2015-07-02T18:30:00Z,28.1384,-96.8285,59.0,1111122 
NERRS,ioos:station:NOAA.NERRS:marmbwq:1,2015-07-02T19:30:00Z,28.1384,-96.8285,78.0,1111122 
NERRS,ioos:station:NOAA.NERRS:marmbwq:1,2015-07-02T20:30:00Z,28.1384,-96.8285,88.0,1111122 
NERRS,ioos:station:NOAA.NERRS:marmbwq:1,2015-07-02T21:30:00Z,28.1384,-96.8285,95.0,1111122 
NERRS,ioos:station:NOAA.NERRS:marmbwq:1,2015-07-03T13:30:00Z,28.1384,-96.8285,16.0,1111122 
NERRS,ioos:station:NOAA.NERRS:marmbwq:1,2015-07-03T14:30:00Z,28.1384,-96.8285,69.0,1111122 
NERRS,ioos:station:NOAA.NERRS:marmbwq:1,2015-07-03T15:30:00Z,28.1384,-96.8285,26.0,1111122 
NERRS,ioos:station:NOAA.NERRS:marmbwq:1,2015-07-03T16:30:00Z,28.1384,-96.8285,22.0,1111122 
NERRS,ioos:station:NOAA.NERRS:marmbwq:1,2015-07-03T17:30:00Z,28.1384,-96.8285,25.0,1111122 
NERRS,ioos:station:NOAA.NERRS:marmbwq:1,2015-07-03T18:30:00Z,28.1384,-96.8285,22.0,1111122 
NERRS,ioos:station:NOAA.NERRS:marmbwq:1,2015-07-03T19:30:00Z,28.1384,-96.8285,20.0,1111122 
NERRS,ioos:station:NOAA.NERRS:marmbwq:1,2015-07-03T20:30:00Z,28.1384,-96.8285,20.0,1111122 
NERRS,ioos:station:NOAA.NERRS:marmbwq:1,2015-07-03T21:30:00Z,28.1384,-96.8285,22.0,1111122 
NERRS,ioos:station:NOAA.NERRS:marmbwq:1,2015-07-03T22:30:00Z,28.1384,-96.8285,29.0,1111122 
NERRS,ioos:station:NOAA.NERRS:marmbwq:1,2015-07-03T23:30:00Z,28.1384,-96.8285,40.0,1111122 
NERRS,ioos:station:NOAA.NERRS:marmbwq:1,2015-07-04T00:30:00Z,28.1384,-96.8285,46.0,1111122 
NERRS,ioos:station:NOAA.NERRS:marmbwq:1,2015-07-04T01:30:00Z,28.1384,-96.8285,49.0,1111122 
NERRS,ioos:station:NOAA.NERRS:marmbwq:1,2015-07-04T02:30:00Z,28.1384,-96.8285,53.0,1111122 
NERRS,ioos:station:NOAA.NERRS:marmbwq:1,2015-07-04T03:30:00Z,28.1384,-96.8285,63.0,1111122 
NERRS,ioos:station:NOAA.NERRS:marmbwq:1,2015-07-04T04:30:00Z,28.1384,-96.8285,66.0,1111122 
NERRS,ioos:station:NOAA.NERRS:marmbwq:1,2015-07-04T05:30:00Z,28.1384,-96.8285,74.0,1111122 
NERRS,ioos:station:NOAA.NERRS:marmbwq:1,2015-07-04T06:30:00Z,28.1384,-96.8285,77.0,1111122 
NERRS,ioos:station:NOAA.NERRS:marmbwq:1,2015-07-04T08:00:00Z,28.1384,-96.8285,78.0,1111122 
NERRS,ioos:station:NOAA.NERRS:marmbwq:1,2015-07-04T08:30:00Z,28.1384,-96.8285,72.0,1111122 
NERRS,ioos:station:NOAA.NERRS:marmbwq:1,2015-07-04T09:30:00Z,28.1384,-96.8285,61.0,1111122 
NERRS,ioos:station:NOAA.NERRS:marmbwq:1,2015-07-04T10:30:00Z,28.1384,-96.8285,61.0,1111122 
NERRS,ioos:station:NOAA.NERRS:marmbwq:1,2015-07-04T11:30:00Z,28.1384,-96.8285,55.0,1111122 
NERRS,ioos:station:NOAA.NERRS:marmbwq:1,2015-07-04T12:30:00Z,28.1384,-96.8285,52.0,1111122 
NERRS,ioos:station:NOAA.NERRS:marmbwq:1,2015-07-04T13:30:00Z,28.1384,-96.8285,48.0,1111122 
NERRS,ioos:station:NOAA.NERRS:marmbwq:1,2015-07-04T14:30:00Z,28.1384,-96.8285,56.0,1111122 
NERRS,ioos:station:NOAA.NERRS:marmbwq:1,2015-07-04T15:30:00Z,28.1384,-96.8285,45.0,1111122 
NERRS,ioos:station:NOAA.NERRS:marmbwq:1,2015-07-04T16:30:00Z,28.1384,-96.8285,47.0,1111122 
NERRS,ioos:station:NOAA.NERRS:marmbwq:1,2015-07-04T17:30:00Z,28.1384,-96.8285,51.0,1111122 
NERRS,ioos:station:NOAA.NERRS:marmbwq:1,2015-07-04T18:30:00Z,28.1384,-96.8285,57.0,1111122 
NERRS,ioos:station:NOAA.NERRS:marmbwq:1,2015-07-04T19:30:00Z,28.1384,-96.8285,64.0,1111122 
NERRS,ioos:station:NOAA.NERRS:marmbwq:1,2015-07-04T20:30:00Z,28.1384,-96.8285,66.0,1111122 
NERRS,ioos:station:NOAA.NERRS:marmbwq:1,2015-07-04T21:30:00Z,28.1384,-96.8285,62.0,1111122 
NERRS,ioos:station:NOAA.NERRS:marmbwq:1,2015-07-04T22:30:00Z,28.1384,-96.8285,60.0,1111122 
NERRS,ioos:station:NOAA.NERRS:marmbwq:1,2015-07-04T23:30:00Z,28.1384,-96.8285,63.0,1111122 
NERRS,ioos:station:NOAA.NERRS:marmbwq:1,2015-07-05T00:30:00Z,28.1384,-96.8285,72.0,1111122 
NERRS,ioos:station:NOAA.NERRS:marmbwq:1,2015-07-05T01:30:00Z,28.1384,-96.8285,75.0,1111122 
NERRS,ioos:station:NOAA.NERRS:marmbwq:1,2015-07-05T02:30:00Z,28.1384,-96.8285,71.0,1111122 
NERRS,ioos:station:NOAA.NERRS:marmbwq:1,2015-07-05T03:30:00Z,28.1384,-96.8285,76.0,1111122 
NERRS,ioos:station:NOAA.NERRS:marmbwq:1,2015-07-05T04:30:00Z,28.1384,-96.8285,62.0,1111122 
NERRS,ioos:station:NOAA.NERRS:marmbwq:1,2015-07-05T05:30:00Z,28.1384,-96.8285,57.0,1111122 
NERRS,ioos:station:NOAA.NERRS:marmbwq:1,2015-07-05T06:30:00Z,28.1384,-96.8285,56.0,1111122 
NERRS,ioos:station:NOAA.NERRS:marmbwq:1,2015-07-05T07:30:00Z,28.1384,-96.8285,56.0,1111122 
NERRS,ioos:station:NOAA.NERRS:marmbwq:1,2015-07-05T08:30:00Z,28.1384,-96.8285,61.0,1111122 
NERRS,ioos:station:NOAA.NERRS:marmbwq:1,2015-07-05T09:30:00Z,28.1384,-96.8285,56.0,1111122 
NERRS,ioos:station:NOAA.NERRS:marmbwq:1,2015-07-05T10:30:00Z,28.1384,-96.8285,58.0,1111122 
NERRS,ioos:station:NOAA.NERRS:marmbwq:1,2015-07-05T11:30:00Z,28.1384,-96.8285,56.0,1111122 
NERRS,ioos:station:NOAA.NERRS:marmbwq:1,2015-07-05T12:30:00Z,28.1384,-96.8285,74.0,1111122 
NERRS,ioos:station:NOAA.NERRS:marmbwq:1,2015-07-05T13:30:00Z,28.1384,-96.8285,76.0,1111122 
NERRS,ioos:station:NOAA.NERRS:marmbwq:1,2015-07-05T14:30:00Z,28.1384,-96.8285,87.0,1111122 
NERRS,ioos:station:NOAA.NERRS:marmbwq:1,2015-07-05T15:30:00Z,28.1384,-96.8285,74.0,1111122 
NERRS,ioos:station:NOAA.NERRS:marmbwq:1,2015-07-05T16:30:00Z,28.1384,-96.8285,71.0,1111122 
NERRS,ioos:station:NOAA.NERRS:marmbwq:1,2015-07-05T17:30:00Z,28.1384,-96.8285,58.0,1111122 
NERRS,ioos:station:NOAA.NERRS:marmbwq:1,2015-07-05T18:30:00Z,28.1384,-96.8285,80.0,1111122 
NERRS,ioos:station:NOAA.NERRS:marmbwq:1,2015-07-05T19:30:00Z,28.1384,-96.8285,75.0,1111122 
NERRS,ioos:station:NOAA.NERRS:marmbwq:1,2015-07-05T21:30:00Z,28.1384,-96.8285,70.0,1111122 
NERRS,ioos:station:NOAA.NERRS:marmbwq:1,2015-07-05T22:30:00Z,28.1384,-96.8285,98.0,1111122 
NERRS,ioos:station:NOAA.NERRS:marmbwq:1,2015-07-05T23:30:00Z,28.1384,-96.8285,128.0,1111122 
NERRS,ioos:station:NOAA.NERRS:marmbwq:1,2015-07-06T00:30:00Z,28.1384,-96.8285,124.0,1111122 
NERRS,ioos:station:NOAA.NERRS:marmbwq:1,2015-07-06T01:30:00Z,28.1384,-96.8285,128.0,1111122 
NERRS,ioos:station:NOAA.NERRS:marmbwq:1,2015-07-06T02:30:00Z,28.1384,-96.8285,133.0,1111122 
NERRS,ioos:station:NOAA.NERRS:marmbwq:1,2015-07-06T03:30:00Z,28.1384,-96.8285,103.0,1111122 
NERRS,ioos:station:NOAA.NERRS:marmbwq:1,2015-07-06T04:30:00Z,28.1384,-96.8285,79.0,1111122 
NERRS,ioos:station:NOAA.NERRS:marmbwq:1,2015-07-06T05:30:00Z,28.1384,-96.8285,65.0,1111122 
NERRS,ioos:station:NOAA.NERRS:marmbwq:1,2015-07-06T06:30:00Z,28.1384,-96.8285,61.0,1111122 
NERRS,ioos:station:NOAA.NERRS:marmbwq:1,2015-07-06T08:00:00Z,28.1384,-96.8285,58.0,1111122 
NERRS,ioos:station:NOAA.NERRS:marmbwq:1,2015-07-06T08:30:00Z,28.1384,-96.8285,58.0,1111122 
NERRS,ioos:station:NOAA.NERRS:marmbwq:1,2015-07-06T09:30:00Z,28.1384,-96.8285,59.0,1111122 
NERRS,ioos:station:NOAA.NERRS:marmbwq:1,2015-07-06T10:30:00Z,28.1384,-96.8285,61.0,1111122 
NERRS,ioos:station:NOAA.NERRS:marmbwq:1,2015-07-06T11:30:00Z,28.1384,-96.8285,54.0,1111122 
NERRS,ioos:station:NOAA.NERRS:marmbwq:1,2015-07-06T12:30:00Z,28.1384,-96.8285,44.0,1111122 
NERRS,ioos:station:NOAA.NERRS:marmbwq:1,2015-07-06T13:30:00Z,28.1384,-96.8285,37.0,1111122 
NERRS,ioos:station:NOAA.NERRS:marmbwq:1,2015-07-06T14:30:00Z,28.1384,-96.8285,58.0,1111122 
NERRS,ioos:station:NOAA.NERRS:marmbwq:1,2015-07-06T15:30:00Z,28.1384,-96.8285,59.0,1111122 
NERRS,ioos:station:NOAA.NERRS:marmbwq:1,2015-07-06T16:30:00Z,28.1384,-96.8285,57.0,1111122 
NERRS,ioos:station:NOAA.NERRS:marmbwq:1,2015-07-06T17:30:00Z,28.1384,-96.8285,73.0,1111122 
NERRS,ioos:station:NOAA.NERRS:marmbwq:1,2015-07-06T18:30:00Z,28.1384,-96.8285,75.0,1111122 
NERRS,ioos:station:NOAA.NERRS:marmbwq:1,2015-07-06T19:30:00Z,28.1384,-96.8285,77.0,1111122 
NERRS,ioos:station:NOAA.NERRS:marmbwq:1,2015-07-06T20:30:00Z,28.1384,-96.8285,75.0,1111122 
NERRS,ioos:station:NOAA.NERRS:marmbwq:1,2015-07-06T21:30:00Z,28.1384,-96.8285,88.0,1111122 
NERRS,ioos:station:NOAA.NERRS:marmbwq:1,2015-07-06T23:00:00Z,28.1384,-96.8285,107.0,1111122 
NERRS,ioos:station:NOAA.NERRS:marmbwq:1,2015-07-06T23:30:00Z,28.1384,-96.8285,102.0,1111122 
NERRS,ioos:station:NOAA.NERRS:marmbwq:1,2015-07-07T00:30:00Z,28.1384,-96.8285,102.0,1111122 
NERRS,ioos:station:NOAA.NERRS:marmbwq:1,2015-07-07T01:30:00Z,28.1384,-96.8285,102.0,1111122 
NERRS,ioos:station:NOAA.NERRS:marmbwq:1,2015-07-07T02:30:00Z,28.1384,-96.8285,100.0,1111122 
NERRS,ioos:station:NOAA.NERRS:marmbwq:1,2015-07-07T03:30:00Z,28.1384,-96.8285,112.0,1111122 
NERRS,ioos:station:NOAA.NERRS:marmbwq:1,2015-07-07T04:30:00Z,28.1384,-96.8285,110.0,1111122 
NERRS,ioos:station:NOAA.NERRS:marmbwq:1,2015-07-07T05:30:00Z,28.1384,-96.8285,102.0,1111122 
NERRS,ioos:station:NOAA.NERRS:marmbwq:1,2015-07-07T06:30:00Z,28.1384,-96.8285,88.0,1111122 
NERRS,ioos:station:NOAA.NERRS:marmbwq:1,2015-07-07T07:30:00Z,28.1384,-96.8285,96.0,1111122 
NERRS,ioos:station:NOAA.NERRS:marmbwq:1,2015-07-07T08:30:00Z,28.1384,-96.8285,100.0,1111122 
NERRS,ioos:station:NOAA.NERRS:marmbwq:1,2015-07-07T09:30:00Z,28.1384,-96.8285,100.0,1111122 
NERRS,ioos:station:NOAA.NERRS:marmbwq:1,2015-07-07T14:30:00Z,28.1384,-96.8285,96.0,1111122 
NERRS,ioos:station:NOAA.NERRS:marmbwq:1,2015-07-07T15:30:00Z,28.1384,-96.8285,93.0,1111122 
NERRS,ioos:station:NOAA.NERRS:marmbwq:1,2015-07-07T16:30:00Z,28.1384,-96.8285,178.0,1111122 
NERRS,ioos:station:NOAA.NERRS:marmbwq:1,2015-07-07T17:30:00Z,28.1384,-96.8285,189.0,1111122 
NERRS,ioos:station:NOAA.NERRS:marmbwq:1,2015-07-07T18:30:00Z,28.1384,-96.8285,152.0,1111122 
NERRS,ioos:station:NOAA.NERRS:marmbwq:1,2015-07-07T19:30:00Z,28.1384,-96.8285,119.0,1111122 
NERRS,ioos:station:NOAA.NERRS:marmbwq:1,2015-07-07T20:30:00Z,28.1384,-96.8285,95.0,1111122 
NERRS,ioos:station:NOAA.NERRS:marmbwq:1,2015-07-07T21:30:00Z,28.1384,-96.8285,83.0,1111122 
NERRS,ioos:station:NOAA.NERRS:marmbwq:1,2015-07-07T23:30:00Z,28.1384,-96.8285,85.0,1111122 
NERRS,ioos:station:NOAA.NERRS:marmbwq:1,2015-07-08T01:30:00Z,28.1384,-96.8285,126.0,1111122 
NERRS,ioos:station:NOAA.NERRS:marmbwq:1,2015-07-08T02:30:00Z,28.1384,-96.8285,122.0,1111122 
NERRS,ioos:station:NOAA.NERRS:marmbwq:1,2015-07-08T03:30:00Z,28.1384,-96.8285,108.0,1111122 
NERRS,ioos:station:NOAA.NERRS:marmbwq:1,2015-07-08T04:30:00Z,28.1384,-96.8285,97.0,1111122 
NERRS,ioos:station:NOAA.NERRS:marmbwq:1,2015-07-08T05:30:00Z,28.1384,-96.8285,107.0,1111122 
NERRS,ioos:station:NOAA.NERRS:marmbwq:1,2015-07-08T06:30:00Z,28.1384,-96.8285,135.0,1111122 
NERRS,ioos:station:NOAA.NERRS:marmbwq:1,2015-07-08T07:30:00Z,28.1384,-96.8285,149.0,1111122 
NERRS,ioos:station:NOAA.NERRS:marmbwq:1,2015-07-08T08:30:00Z,28.1384,-96.8285,173.0,1111122 
NERRS,ioos:station:NOAA.NERRS:marmbwq:1,2015-07-08T09:30:00Z,28.1384,-96.8285,145.0,1111122 
NERRS,ioos:station:NOAA.NERRS:marmbwq:1,2015-07-08T10:30:00Z,28.1384,-96.8285,160.0,1111122 
NERRS,ioos:station:NOAA.NERRS:marmbwq:1,2015-07-08T11:30:00Z,28.1384,-96.8285,155.0,1111122 
NERRS,ioos:station:NOAA.NERRS:marmbwq:1,2015-07-08T12:30:00Z,28.1384,-96.8285,156.0,1111122 
NERRS,ioos:station:NOAA.NERRS:marmbwq:1,2015-07-08T13:30:00Z,28.1384,-96.8285,131.0,1111122 
NERRS,ioos:station:NOAA.NERRS:marmbwq:1,2015-07-08T15:30:00Z,28.1384,-96.8285,160.0,1111122 
NERRS,ioos:station:NOAA.NERRS:marmbwq:1,2015-07-08T16:30:00Z,28.1384,-96.8285,146.0,1111122 
NERRS,ioos:station:NOAA.NERRS:marmbwq:1,2015-07-08T17:30:00Z,28.1384,-96.8285,159.0,1111122 
NERRS,ioos:station:NOAA.NERRS:marmbwq:1,2015-07-08T18:30:00Z,28.1384,-96.8285,116.0,1111122 
NERRS,ioos:station:NOAA.NERRS:marmbwq:1,2015-07-08T19:30:00Z,28.1384,-96.8285,117.0,1111122 
NERRS,ioos:station:NOAA.NERRS:marmbwq:1,2015-07-08T20:30:00Z,28.1384,-96.8285,152.0,1111122 
NERRS,ioos:station:NOAA.NERRS:marmbwq:1,2015-07-08T21:30:00Z,28.1384,-96.8285,164.0,1111122 
NERRS,ioos:station:NOAA.NERRS:marmbwq:1,2015-07-08T22:30:00Z,28.1384,-96.8285,167.0,1111122 
NERRS,ioos:station:NOAA.NERRS:marmbwq:1,2015-07-08T23:30:00Z,28.1384,-96.8285,178.0,1111122 
NERRS,ioos:station:NOAA.NERRS:marmbwq:1,2015-07-09T00:30:00Z,28.1384,-96.8285,166.0,1111122 
NERRS,ioos:station:NOAA.NERRS:marmbwq:1,2015-07-09T01:30:00Z,28.1384,-96.8285,158.0,1111122 
NERRS,ioos:station:NOAA.NERRS:marmbwq:1,2015-07-09T02:30:00Z,28.1384,-96.8285,107.0,1111122 
NERRS,ioos:station:NOAA.NERRS:marmbwq:1,2015-07-09T03:30:00Z,28.1384,-96.8285,69.0,1111122 
NERRS,ioos:station:NOAA.NERRS:marmbwq:1,2015-07-09T04:30:00Z,28.1384,-96.8285,99.0,1111122 
NERRS,ioos:station:NOAA.NERRS:marmbwq:1,2015-07-09T05:30:00Z,28.1384,-96.8285,89.0,1111122 
NERRS,ioos:station:NOAA.NERRS:marmbwq:1,2015-07-09T06:30:00Z,28.1384,-96.8285,113.0,1111122 
NERRS,ioos:station:NOAA.NERRS:marmbwq:1,2015-07-09T07:30:00Z,28.1384,-96.8285,136.0,1111122 
NERRS,ioos:station:NOAA.NERRS:marmbwq:1,2015-07-09T08:30:00Z,28.1384,-96.8285,135.0,1111122 
NERRS,ioos:station:NOAA.NERRS:marmbwq:1,2015-07-09T10:30:00Z,28.1384,-96.8285,139.0,1111122 
NERRS,ioos:station:NOAA.NERRS:marmbwq:1,2015-07-09T11:30:00Z,28.1384,-96.8285,101.0,1111122 
NERRS,ioos:station:NOAA.NERRS:marmbwq:1,2015-07-09T12:30:00Z,28.1384,-96.8285,88.0,1111122 
NERRS,ioos:station:NOAA.NERRS:marmbwq:1,2015-07-09T13:00:00Z,28.1384,-96.8285,80.0,1111122 
NERRS,ioos:station:NOAA.NERRS:marmbwq:1,2015-07-09T16:30:00Z,28.1384,-96.8285,103.0,1111122 
NERRS,ioos:station:NOAA.NERRS:marmbwq:1,2015-07-09T17:30:00Z,28.1384,-96.8285,112.0,1111122 
NERRS,ioos:station:NOAA.NERRS:marmbwq:1,2015-07-09T18:30:00Z,28.1384,-96.8285,67.0,1111122 
NERRS,ioos:station:NOAA.NERRS:marmbwq:1,2015-07-09T20:30:00Z,28.1384,-96.8285,58.0,1111122 
NERRS,ioos:station:NOAA.NERRS:marmbwq:1,2015-07-09T21:30:00Z,28.1384,-96.8285,63.0,1111122 
NERRS,ioos:station:NOAA.NERRS:marmbwq:1,2015-07-09T22:30:00Z,28.1384,-96.8285,78.0,1111122 
NERRS,ioos:station:NOAA.NERRS:marmbwq:1,2015-07-09T23:30:00Z,28.1384,-96.8285,92.0,1111122 
NERRS,ioos:station:NOAA.NERRS:marmbwq:1,2015-07-10T00:30:00Z,28.1384,-96.8285,90.0,1111122 
NERRS,ioos:station:NOAA.NERRS:marmbwq:1,2015-07-10T01:30:00Z,28.1384,-96.8285,65.0,1111122 
NERRS,ioos:station:NOAA.NERRS:marmbwq:1,2015-07-10T02:30:00Z,28.1384,-96.8285,83.0,1111122 
NERRS,ioos:station:NOAA.NERRS:marmbwq:1,2015-07-10T03:30:00Z,28.1384,-96.8285,77.0,1111122 
NERRS,ioos:station:NOAA.NERRS:marmbwq:1,2015-07-10T04:30:00Z,28.1384,-96.8285,83.0,1111122 
NERRS,ioos:station:NOAA.NERRS:marmbwq:1,2015-07-10T05:30:00Z,28.1384,-96.8285,78.0,1111122 
NERRS,ioos:station:NOAA.NERRS:marmbwq:1,2015-07-10T06:30:00Z,28.1384,-96.8285,108.0,1111122 
NERRS,ioos:station:NOAA.NERRS:marmbwq:1,2015-07-10T07:30:00Z,28.1384,-96.8285,133.0,1111122 
NERRS,ioos:station:NOAA.NERRS:marmbwq:1,2015-07-10T09:30:00Z,28.1384,-96.8285,105.0,1111122 
NERRS,ioos:station:NOAA.NERRS:marmbwq:1,2015-07-10T10:30:00Z,28.1384,-96.8285,78.0,1111122 
NERRS,ioos:station:NOAA.NERRS:marmbwq:1,2015-07-10T11:30:00Z,28.1384,-96.8285,62.0,1111122 
NERRS,ioos:station:NOAA.NERRS:marmbwq:1,2015-07-10T12:30:00Z,28.1384,-96.8285,57.0,1111122 
NERRS,ioos:station:NOAA.NERRS:marmbwq:1,2015-07-10T13:30:00Z,28.1384,-96.8285,46.0,1111122 
NERRS,ioos:station:NOAA.NERRS:marmbwq:1,2015-07-10T14:30:00Z,28.1384,-96.8285,39.0,1111122 
NERRS,ioos:station:NOAA.NERRS:marmbwq:1,2015-07-10T15:30:00Z,28.1384,-96.8285,32.0,1111122 
NERRS,ioos:station:NOAA.NERRS:marmbwq:1,2015-07-10T16:30:00Z,28.1384,-96.8285,27.0,1111122 
NERRS,ioos:station:NOAA.NERRS:marmbwq:1,2015-07-10T17:30:00Z,28.1384,-96.8285,26.0,1111122 
NERRS,ioos:station:NOAA.NERRS:marmbwq:1,2015-07-10T18:30:00Z,28.1384,-96.8285,24.0,1111122 
NERRS,ioos:station:NOAA.NERRS:marmbwq:1,2015-07-10T19:30:00Z,28.1384,-96.8285,24.0,1111122 
NERRS,ioos:station:NOAA.NERRS:marmbwq:1,2015-07-10T20:30:00Z,28.1384,-96.8285,21.0,1111122 
NERRS,ioos:station:NOAA.NERRS:marmbwq:1,2015-07-10T21:00:00Z,28.1384,-96.8285,18.0,1111122 
NERRS,ioos:station:NOAA.NERRS:marmbwq:1,2015-07-10T22:30:00Z,28.1384,-96.8285,16.0,1111122 
NERRS,ioos:station:NOAA.NERRS:marmbwq:1,2015-07-10T23:30:00Z,28.1384,-96.8285,16.0,1111122 
NERRS,ioos:station:NOAA.NERRS:marmbwq:1,2015-07-11T00:30:00Z,28.1384,-96.8285,17.0,1111122 
NERRS,ioos:station:NOAA.NERRS:marmbwq:1,2015-07-11T01:30:00Z,28.1384,-96.8285,18.0,1111122 
NERRS,ioos:station:NOAA.NERRS:marmbwq:1,2015-07-11T03:00:00Z,28.1384,-96.8285,18.0,1111122 
NERRS,ioos:station:NOAA.NERRS:marmbwq:1,2015-07-11T03:30:00Z,28.1384,-96.8285,20.0,1111122 
NERRS,ioos:station:NOAA.NERRS:marmbwq:1,2015-07-11T04:30:00Z,28.1384,-96.8285,20.0,1111122 
NERRS,ioos:station:NOAA.NERRS:marmbwq:1,2015-07-11T05:30:00Z,28.1384,-96.8285,24.0,1111122 
NERRS,ioos:station:NOAA.NERRS:marmbwq:1,2015-07-11T06:30:00Z,28.1384,-96.8285,22.0,1111122 
NERRS,ioos:station:NOAA.NERRS:marmbwq:1,2015-07-11T08:00:00Z,28.1384,-96.8285,32.0,1111122 
NERRS,ioos:station:NOAA.NERRS:marmbwq:1,2015-07-11T08:30:00Z,28.1384,-96.8285,31.0,1111122 
NERRS,ioos:station:NOAA.NERRS:marmbwq:1,2015-07-11T09:30:00Z,28.1384,-96.8285,30.0,1111122 
NERRS,ioos:station:NOAA.NERRS:marmbwq:1,2015-07-11T10:30:00Z,28.1384,-96.8285,25.0,1111122 
NERRS,ioos:station:NOAA.NERRS:marmbwq:1,2015-07-11T11:30:00Z,28.1384,-96.8285,25.0,1111122 
NERRS,ioos:station:NOAA.NERRS:marmbwq:1,2015-07-11T12:30:00Z,28.1384,-96.8285,23.0,1111122 
NERRS,ioos:station:NOAA.NERRS:marmbwq:1,2015-07-11T13:30:00Z,28.1384,-96.8285,21.0,1111122 
NERRS,ioos:station:NOAA.NERRS:marmbwq:1,2015-07-11T14:30:00Z,28.1384,-96.8285,18.0,1111122 
NERRS,ioos:station:NOAA.NERRS:marmbwq:1,2015-07-11T15:30:00Z,28.1384,-96.8285,16.0,1111122 
NERRS,ioos:station:NOAA.NERRS:marmbwq:1,2015-07-11T16:30:00Z,28.1384,-96.8285,14.0,1111122 
NERRS,ioos:station:NOAA.NERRS:marmbwq:1,2015-07-11T17:30:00Z,28.1384,-96.8285,11.0,1111122 
NERRS,ioos:station:NOAA.NERRS:marmbwq:1,2015-07-11T18:30:00Z,28.1384,-96.8285,11.0,1111122 
NERRS,ioos:station:NOAA.NERRS:marmbwq:1,2015-07-11T19:30:00Z,28.1384,-96.8285,11.0,1111122 
NERRS,ioos:station:NOAA.NERRS:marmbwq:1,2015-07-11T20:30:00Z,28.1384,-96.8285,11.0,1111122 
NERRS,ioos:station:NOAA.NERRS:marmbwq:1,2015-07-11T21:30:00Z,28.1384,-96.8285,10.0,1111122 
NERRS,ioos:station:NOAA.NERRS:marmbwq:1,2015-07-11T22:30:00Z,28.1384,-96.8285,10.0,1111122 
NERRS,ioos:station:NOAA.NERRS:marmbwq:1,2015-07-11T23:30:00Z,28.1384,-96.8285,10.0,1111122 
NERRS,ioos:station:NOAA.NERRS:marmbwq:1,2015-07-12T00:30:00Z,28.1384,-96.8285,10.0,1111122 
NERRS,ioos:station:NOAA.NERRS:marmbwq:1,2015-07-12T01:30:00Z,28.1384,-96.8285,9.0,1111122 
NERRS,ioos:station:NOAA.NERRS:marmbwq:1,2015-07-12T02:30:00Z,28.1384,-96.8285,8.0,1111122 
NERRS,ioos:station:NOAA.NERRS:marmbwq:1,2015-07-12T03:30:00Z,28.1384,-96.8285,11.0,1111122 
NERRS,ioos:station:NOAA.NERRS:marmbwq:1,2015-07-12T04:30:00Z,28.1384,-96.8285,10.0,1111122 
NERRS,ioos:station:NOAA.NERRS:marmbwq:1,2015-07-12T05:30:00Z,28.1384,-96.8285,12.0,1111122 
NERRS,ioos:station:NOAA.NERRS:marmbwq:1,2015-07-12T06:30:00Z,28.1384,-96.8285,13.0,1111122 
NERRS,ioos:station:NOAA.NERRS:marmbwq:1,2015-07-12T07:30:00Z,28.1384,-96.8285,18.0,1111122 
NERRS,ioos:station:NOAA.NERRS:marmbwq:1,2015-07-12T08:30:00Z,28.1384,-96.8285,14.0,1111122 
NERRS,ioos:station:NOAA.NERRS:marmbwq:1,2015-07-12T09:30:00Z,28.1384,-96.8285,14.0,1111122 
NERRS,ioos:station:NOAA.NERRS:marmbwq:1,2015-07-12T10:30:00Z,28.1384,-96.8285,16.0,1111122 
NERRS,ioos:station:NOAA.NERRS:marmbwq:1,2015-07-12T11:30:00Z,28.1384,-96.8285,11.0,1111122 
NERRS,ioos:station:NOAA.NERRS:marmbwq:1,2015-07-12T12:30:00Z,28.1384,-96.8285,12.0,1111122 
NERRS,ioos:station:NOAA.NERRS:marmbwq:1,2015-07-12T13:30:00Z,28.1384,-96.8285,10.0,1111122 
NERRS,ioos:station:NOAA.NERRS:marmbwq:1,2015-07-12T14:30:00Z,28.1384,-96.8285,11.0,1111122 
NERRS,ioos:station:NOAA.NERRS:marmbwq:1,2015-07-12T15:30:00Z,28.1384,-96.8285,14.0,1111122 
NERRS,ioos:station:NOAA.NERRS:marmbwq:1,2015-07-12T16:30:00Z,28.1384,-96.8285,11.0,1111122 
NERRS,ioos:station:NOAA.NERRS:marmbwq:1,2015-07-12T17:30:00Z,28.1384,-96.8285,12.0,1111122 
NERRS,ioos:station:NOAA.NERRS:marmbwq:1,2015-07-12T18:30:00Z,28.1384,-96.8285,12.0,1111122 
NERRS,ioos:station:NOAA.NERRS:marmbwq:1,2015-07-12T19:30:00Z,28.1384,-96.8285,11.0,1111122 
NERRS,ioos:station:NOAA.NERRS:marmbwq:1,2015-07-12T20:30:00Z,28.1384,-96.8285,14.0,1111122 
NERRS,ioos:station:NOAA.NERRS:marmbwq:1,2015-07-12T21:30:00Z,28.1384,-96.8285,12.0,1111122 
NERRS,ioos:station:NOAA.NERRS:marmbwq:1,2015-07-12T22:30:00Z,28.1384,-96.8285,12.0,1111122 
NERRS,ioos:station:NOAA.NERRS:marmbwq:1,2015-07-12T23:30:00Z,28.1384,-96.8285,11.0,1111122 
NERRS,ioos:station:NOAA.NERRS:marmbwq:1,2015-07-13T00:30:00Z,28.1384,-96.8285,18.0,1111122 
NERRS,ioos:station:NOAA.NERRS:marmbwq:1,2015-07-13T01:30:00Z,28.1384,-96.8285,22.0,1111122 